Regional Weather Roundup
Issued by NWS

Home | Current Version | Previous Version | Graphics & Text | Print | Product List | Glossary On
Versions: 1 2 3 4 5 6 7 8 9 10 11 12 13 14 15 16 17 18 19 20 21 22 23 24 25 26 27 28 29 30 31 32 33 34 35 36 37 38 39 40 41 42 43 44 45 46 47 48 49 50
000
ASUS43 KTOP 290359
RWRKS

WEATHER ROUNDUP FOR KANSAS
NATIONAL WEATHER SERVICE GOODLAND KS
1100 PM CDT THU MAY 28 2015

NOTE:  "FAIR" INDICATES FEW OR NO CLOUDS BELOW 12,000 FEET WITH NO
SIGNIFICANT WEATHER AND/OR OBSTRUCTIONS TO VISIBILITY.

KSZ001>006-013>018-027>032-041>047-290500-
NORTHWEST KANSAS

CITY           SKY/WX    TMP DP  RH WIND       PRES   REMARKS
GOODLAND       CLOUDY    55  52  89 E7        29.99F
HAYS           CLOUDY    59  52  77 E8        29.94S
HILL CITY      CLOUDY    58  56  93 CALM      29.94F
RUSSELL        LGT RAIN  61  57  87 NE13      29.90F
$$

KSZ061>065-074>080-084>089-290500-
SOUTHWEST KANSAS

CITY           SKY/WX    TMP DP  RH WIND       PRES   REMARKS
DODGE CITY     CLOUDY    59  55  87 NE12      29.97R
ELKHART          N/A     59  52  78 N12         N/A
GARDEN CITY    CLOUDY    57  54  89 E14       29.96F
GREAT BEND     CLOUDY    61  55  82 E6        29.95F
LIBERAL        CLOUDY    64  52  63 W10       29.99R
$$

KSZ066>073-081>083-090>101-290500-
SOUTHEAST KANSAS

CITY           SKY/WX    TMP DP  RH WIND       PRES   REMARKS
CHANUTE        MOCLDY    68  66  93 SE6       29.99S
COFFEYVILLE    CLOUDY    70  67  90 E6        29.99R
HUTCHINSON     TSTM      65  57  75 NW15G25   29.98R
MEDICINE LODGE   N/A     72  67  84 S6        29.94R
NEWTON         MOCLDY    68  61  77 SE8       29.98R
PARSONS        MOCLDY    68  67  96 SE3       30.01R
WICHITA INTL   MOCLDY    72  66  81 SE12      29.94S
WICHITA JABRA  MOCLDY    69  65  86 SE8       29.94F
WINFIELD       MOCLDY    71  68  90 SE9       29.96F
$$

KSZ007>012-019>026-033>040-048>060-102>105-290500-
NORTHEAST KANSAS

CITY           SKY/WX    TMP DP  RH WIND       PRES   REMARKS
CONCORDIA      TSTM      66  60  81 W24G32    29.99R
EMPORIA        MOCLDY    66  64  93 SE8       29.97S
LAWRENCE       MOCLDY    65  62  90 SE5       30.01R
MANHATTAN      CLOUDY    70  64  81 SE6       29.94S
OLATHE IND     MOCLDY    66  64  93 SE9       30.02R
OLATHE EXE     MOCLDY    66  64  93 S8        30.01R
SALINA         CLOUDY    69  57  65 W18G28    29.99R
TOPEKA BILLARD MOCLDY    67  64  90 E7        29.99R
TOPEKA FORBES  MOCLDY    67  63  87 E8        29.98R
$$



USA.gov is the U.S. government's official web portal to all federal, state and local government web resources and services.